This demonstration page uses our WeatherBlox Daily Observations layout. Learn more.

Left ArrowRight Arrow

Hourly Observations for October 27, 2021

Temp ( °F °C ) Dew Point ( °F °C ) Humidity (%) Winds ( mph kmh ) Pressure ( in mb ) Visibility ( mi km ) Precip ( " mm )
12:53 am 00:53 Clear 41 5 26 -3.3 55 55 SSW 16 26 29.72 1007 10 16 N/A
1:53 am 01:53 Clear 41 5 26 -3.3 55 55 SSW 15 24 29.71 1006 10 16 N/A
2:53 am 02:53 Mostly Clear 42 5.6 28 -2.2 58 58 SW 14 22 29.70 1006 10 16 N/A
3:53 am 03:53 Mostly Clear 45 7.2 28 -2.2 52 52 SW 15 24 29.68 1005 10 16 N/A
4:53 am 04:53 Clear 41 5 28 -2.2 60 60 SW 7 11 29.69 1005 10 16 N/A
5:53 am 05:53 Clear 42 5.6 28 -2.2 58 58 SW 13 20 29.70 1006 10 16 N/A
6:53 am 06:53 Clear 40 4.4 29 -1.7 65 65 SW 15 24 29.70 1006 10 16 N/A
7:53 am 07:53 Clear 45 7.2 30 -1.1 56 56 SW 17 28 29.70 1006 10 16 N/A
8:53 am 08:53 Cloudy 47 8.3 29 -1.7 50 50 SSW 15 24 29.74 1007 10 16 N/A
9:53 am 09:53 Cloudy 50 10 29 -1.7 44 44 SW 22 35 29.74 1007 10 16 N/A
10:53 am 10:53 Mostly Cloudy 49 9.4 32 undefined 52 52 SW 24 39 29.77 1008 10 16 N/A
11:53 am 11:53 Sunny 56 13.3 31 -0.6 39 39 WSW 28 44 29.76 1008 10 16 N/A
12:53 pm 12:53 Sunny 58 14.4 28 -2.2 32 32 WNW 29 46 29.77 1008 10 16 N/A
1:53 pm 13:53 Sunny 59 15 21 -6.1 23 23 WNW 35 56 29.78 1009 10 16 N/A
2:53 pm 14:53 Mostly Cloudy 56 13.3 21 -6.1 26 26 WNW 32 52 29.81 1009 10 16 N/A
3:53 pm 15:53 Mostly Sunny 59 15 22 -5.6 24 24 WNW 29 46 29.83 1010 10 16 N/A
4:53 pm 16:53 Sunny 56 13.3 23 -5 28 28 WNW 26 43 29.88 1012 10 16 N/A
5:53 pm 17:53 Sunny 53 11.7 21 -6.1 28 28 WNW 18 30 29.94 1014 10 16 N/A
6:53 pm 18:53 Mostly Clear 48 8.9 20 -6.7 33 33 W 14 22 29.98 1015 10 16 N/A
7:53 pm 19:53 Clear 48 8.9 23 -5 37 37 W 18 30 30.01 1016 10 16 N/A
8:53 pm 20:53 Mostly Clear 46 7.8 23 -5 40 40 W 13 20 30.04 1017 10 16 N/A
9:53 pm 21:53 Partly Cloudy 44 6.7 23 -5 43 43 SW 13 20 30.07 1018 10 16 N/A
10:53 pm 22:53 Clear 42 5.6 23 -5 47 47 SSW 16 26 30.09 1019 10 16 N/A
11:53 pm 23:53 Clear 40 4.4 22 -5.6 49 49 SW 16 26 30.09 1019 10 16 N/A

Powered by AerisWeather